When you browse on this site, cookies collect data to enhance your experience and personalize the content and advertising you see.
Visit our Privacy Policy to learn more. By continuing to use the site, you agree to this use of cookies and data.
  • In Portugal
  • List of Countries
  • For 7 days
  • Water Temperature
  • Satellite Maps
  • Weather Map
  • Weather Widgets
  • user-avatar
    Login

    Hourly Weather Nesebyr

    Today, 26 May, Sunday

    Time Temperature Precipitation Wind Pressure Humidity
    00:00 +16°C° 0 mm 2 mps 758 mmHg 86%
    01:00 +16°C° 0 mm 2 mps 759 mmHg 87%
    02:00 +15°C° 0 mm 2 mps 759 mmHg 88%
    03:00 +15°C° 0 mm 2 mps 759 mmHg 87%
    04:00 +15°C° 0 mm 2 mps 759 mmHg 87%
    05:00 +15°C° 0 mm 2 mps 759 mmHg 87%
    06:00 +17°C° 0 mm 2 mps 759 mmHg 81%
    07:00 +19°C° 0 mm 2 mps 760 mmHg 74%
    08:00 +21°C° 0 mm 2 mps 760 mmHg 67%
    09:00 +24°C° 0 mm 2 mps 760 mmHg 62%
    10:00 +25°C° 0 mm 1 mps 760 mmHg 57%
    11:00 +27°C° 0 mm 1 mps 760 mmHg 51%
    12:00 +27°C° 0 mm 1 mps 760 mmHg 50%
    13:00 +28°C° 0 mm 1 mps 760 mmHg 49%
    14:00 +28°C° 0 mm 2 mps 760 mmHg 47%
    15:00 +28°C° 0 mm 2 mps 760 mmHg 49%
    16:00 +28°C° 0 mm 2 mps 760 mmHg 51%
    17:00 +27°C° 0 mm 3 mps 760 mmHg 53%
    18:00 +25°C° 0 mm 3 mps 760 mmHg 61%
    19:00 +23°C° 0 mm 2 mps 760 mmHg 68%
    20:00 +20°C° 0 mm 2 mps 760 mmHg 76%
    21:00 +19°C° 0 mm 2 mps 760 mmHg 79%
    22:00 +18°C° 0 mm 2 mps 760 mmHg 82%
    23:00 +18°C° 0 mm 2 mps 761 mmHg 85%

    Tomorrow, 27 May, Monday

    Time Temperature Precipitation Wind Pressure Humidity
    00:00 +19°C° 0 mm 1 mps 761 mmHg 86%
    01:00 +18°C° 0 mm 1 mps 761 mmHg 87%
    02:00 +18°C° 0 mm 1 mps 760 mmHg 88%
    03:00 +18°C° 0 mm 1 mps 760 mmHg 88%
    04:00 +18°C° 0 mm 1 mps 760 mmHg 88%
    05:00 +18°C° 0 mm 1 mps 760 mmHg 88%
    06:00 +20°C° 0 mm 1 mps 760 mmHg 81%
    07:00 +22°C° 0 mm 1 mps 760 mmHg 74%
    08:00 +24°C° 0 mm 1 mps 761 mmHg 67%
    09:00 +25°C° 0 mm 2 mps 761 mmHg 61%
    10:00 +26°C° 0 mm 3 mps 761 mmHg 55%
    11:00 +27°C° 0 mm 4 mps 761 mmHg 49%
    12:00 +27°C° 0 mm 4 mps 760 mmHg 49%
    13:00 +27°C° 0 mm 5 mps 760 mmHg 49%
    14:00 +27°C° 0 mm 5 mps 760 mmHg 49%
    15:00 +27°C° 0 mm 5 mps 759 mmHg 53%
    16:00 +26°C° 0 mm 5 mps 759 mmHg 56%
    17:00 +25°C° 0 mm 5 mps 759 mmHg 59%
    18:00 +22°C° 0 mm 4 mps 759 mmHg 68%
    19:00 +20°C° 0 mm 4 mps 759 mmHg 78%
    20:00 +18°C° 0 mm 3 mps 759 mmHg 88%
    21:00 +17°C° 0 mm 3 mps 759 mmHg 89%
    22:00 +16°C° 0 mm 2 mps 759 mmHg 90%
    23:00 +16°C° 0 mm 2 mps 759 mmHg 91%

    Day after tomorrow, 28 May, Tuesday

    Time Temperature Precipitation Wind Pressure Humidity
    00:00 +16°C° 0 mm 2 mps 759 mmHg 90%
    01:00 +16°C° 0 mm 2 mps 759 mmHg 89%
    02:00 +16°C° 0 mm 1 mps 758 mmHg 87%
    03:00 +16°C° 0 mm 1 mps 758 mmHg 88%
    04:00 +15°C° 0 mm 1 mps 758 mmHg 88%
    05:00 +15°C° 0 mm 1 mps 757 mmHg 89%
    06:00 +19°C° 0 mm 1 mps 757 mmHg 81%
    07:00 +20°C° 0 mm 2 mps 757 mmHg 73%
    08:00 +24°C° 0 mm 2 mps 757 mmHg 66%
    09:00 +26°C° 0 mm 2 mps 757 mmHg 61%
    10:00 +28°C° 0 mm 2 mps 757 mmHg 56%
    11:00 +29°C° 0 mm 3 mps 757 mmHg 51%
    12:00 +30°C° 0 mm 3 mps 756 mmHg 49%
    13:00 +32°C° 0 mm 4 mps 756 mmHg 47%
    14:00 +33°C° 0 mm 4 mps 755 mmHg 45%
    15:00 +32°C° 0 mm 4 mps 755 mmHg 47%
    16:00 +32°C° 0 mm 4 mps 755 mmHg 50%
    17:00 +30°C° 0 mm 3 mps 754 mmHg 53%
    18:00 +28°C° 0 mm 3 mps 754 mmHg 59%
    19:00 +25°C° 0 mm 3 mps 754 mmHg 65%
    20:00 +23°C° 0 mm 2 mps 754 mmHg 70%
    21:00 +21°C° 0 mm 2 mps 755 mmHg 64%
    22:00 +21°C° 0 mm 3 mps 755 mmHg 58%
    23:00 +20°C° 0 mm 3 mps 755 mmHg 53%

    29 May, Wednesday

    Time Temperature Precipitation Wind Pressure Humidity
    00:00 +19°C° 0 mm 3 mps 755 mmHg 59%
    01:00 +19°C° 0 mm 3 mps 755 mmHg 65%
    02:00 +18°C° 0 mm 3 mps 755 mmHg 72%
    03:00 +18°C° 0 mm 3 mps 755 mmHg 76%
    04:00 +17°C° 0 mm 3 mps 755 mmHg 81%
    05:00 +17°C° 0 mm 3 mps 755 mmHg 85%
    06:00 +19°C° 0 mm 3 mps 755 mmHg 78%
    07:00 +21°C° 0 mm 3 mps 755 mmHg 71%
    08:00 +25°C° 0 mm 4 mps 756 mmHg 64%
    09:00 +26°C° 0 mm 3 mps 756 mmHg 59%
    10:00 +28°C° 0 mm 3 mps 756 mmHg 53%
    11:00 +30°C° 0 mm 3 mps 756 mmHg 47%
    12:00 +30°C° 0 mm 3 mps 756 mmHg 46%
    13:00 +31°C° 0 mm 3 mps 756 mmHg 44%
    14:00 +33°C° 0 mm 3 mps 755 mmHg 42%
    15:00 +31°C° 0 mm 3 mps 755 mmHg 44%
    16:00 +31°C° 0 mm 3 mps 755 mmHg 47%
    17:00 +31°C° 0 mm 3 mps 755 mmHg 49%
    18:00 +28°C° 0 mm 3 mps 755 mmHg 56%
    19:00 +26°C° 0 mm 3 mps 756 mmHg 62%
    20:00 +24°C° 0 mm 3 mps 756 mmHg 68%
    21:00 +22°C° 0 mm 3 mps 756 mmHg 69%
    22:00 +21°C° 0 mm 3 mps 756 mmHg 70%
    23:00 +20°C° 0 mm 2 mps 757 mmHg 72%

    30 May, Thursday

    Time Temperature Precipitation Wind Pressure Humidity
    00:00 +19°C° 0 mm 2 mps 757 mmHg 74%
    01:00 +19°C° 0 mm 2 mps 757 mmHg 76%
    02:00 +18°C° 0 mm 2 mps 757 mmHg 78%
    03:00 +18°C° 0 mm 2 mps 757 mmHg 80%
    04:00 +18°C° 0 mm 2 mps 757 mmHg 82%
    05:00 +18°C° 0 mm 2 mps 757 mmHg 84%
    06:00 +20°C° 0 mm 2 mps 757 mmHg 78%
    07:00 +23°C° 0 mm 2 mps 757 mmHg 72%
    08:00 +25°C° 0 mm 2 mps 758 mmHg 66%
    09:00 +27°C° 0 mm 2 mps 758 mmHg 61%
    10:00 +28°C° 0 mm 2 mps 758 mmHg 56%
    11:00 +30°C° 0 mm 2 mps 758 mmHg 51%
    12:00 +30°C° 0 mm 2 mps 757 mmHg 49%
    13:00 +31°C° 0 mm 2 mps 757 mmHg 48%
    14:00 +31°C° 0 mm 2 mps 757 mmHg 47%
    15:00 +31°C° 0.1 mm 2 mps 757 mmHg 50%
    16:00 +30°C° 0.1 mm 2 mps 757 mmHg 53%
    17:00 +30°C° 0.1 mm 2 mps 757 mmHg 56%
    18:00 +28°C° 0 mm 2 mps 757 mmHg 63%
    19:00 +26°C° 0 mm 1 mps 757 mmHg 69%
    20:00 +24°C° 0 mm 1 mps 757 mmHg 76%
    21:00 +23°C° 0.3 mm 1 mps 758 mmHg 78%
    22:00 +22°C° 0.3 mm 1 mps 758 mmHg 79%
    23:00 +22°C° 0.3 mm 1 mps 758 mmHg 81%

    31 May, Friday

    Time Temperature Precipitation Wind Pressure Humidity
    00:00 +22°C° 0.3 mm 1 mps 758 mmHg 82%
    01:00 +21°C° 0.3 mm 1 mps 758 mmHg 83%
    02:00 +20°C° 0.3 mm 2 mps 758 mmHg 83%
    03:00 +19°C° 0.4 mm 2 mps 758 mmHg 86%
    04:00 +19°C° 0.4 mm 3 mps 758 mmHg 88%
    05:00 +18°C° 0.4 mm 4 mps 759 mmHg 90%
    06:00 +19°C° 0.7 mm 4 mps 759 mmHg 88%
    07:00 +20°C° 0.7 mm 5 mps 759 mmHg 86%
    08:00 +21°C° 0.7 mm 5 mps 759 mmHg 84%
    09:00 +22°C° 0.3 mm 5 mps 759 mmHg 79%
    10:00 +23°C° 0.3 mm 5 mps 760 mmHg 75%
    11:00 +24°C° 0.3 mm 6 mps 760 mmHg 70%
    12:00 +23°C° 0.5 mm 5 mps 760 mmHg 75%
    13:00 +22°C° 0.5 mm 5 mps 760 mmHg 80%
    14:00 +21°C° 0.5 mm 5 mps 759 mmHg 85%
    15:00 +20°C° 0.9 mm 6 mps 759 mmHg 87%
    16:00 +20°C° 0.9 mm 6 mps 759 mmHg 89%
    17:00 +19°C° 0.9 mm 6 mps 759 mmHg 91%
    18:00 +19°C° 2.6 mm 6 mps 759 mmHg 92%
    19:00 +17°C° 2.6 mm 5 mps 760 mmHg 93%
    20:00 +17°C° 2.6 mm 5 mps 760 mmHg 94%
    21:00 +17°C° 3.1 mm 4 mps 760 mmHg 95%
    22:00 +17°C° 3.1 mm 4 mps 760 mmHg 95%
    23:00 +17°C° 3.1 mm 4 mps 760 mmHg 96%
    Show more